TimePDT,TemperatureF,Dew PointF,Humidity,Sea Level PressureIn,VisibilityMPH,Wind Direction,Wind SpeedMPH,Gust SpeedMPH,PrecipitationIn,Events,Conditions,WindDirDegrees,DateUTC
12:54 AM,55.0,51.1,86,30.07,10.0,South,3.5,-,N/A,,Overcast,180,2012-09-17 07:54:00
1:54 AM,54.0,50.0,86,30.09,10.0,South,3.5,-,N/A,,Overcast,190,2012-09-17 08:54:00
2:54 AM,54.0,50.0,86,30.09,10.0,Calm,Calm,-,N/A,,Overcast,0,2012-09-17 09:54:00
3:54 AM,55.0,50.0,83,30.08,10.0,Calm,Calm,-,N/A,,Overcast,0,2012-09-17 10:54:00
4:25 AM,55.4,50.0,82,30.04,10.0,Calm,Calm,-,N/A,,Overcast,0,2012-09-17 11:25:00
4:54 AM,55.4,50.0,82,30.04,10.0,Calm,Calm,-,N/A,,Overcast,0,2012-09-17 11:54:00
5:54 AM,55.0,50.0,83,30.07,10.0,ENE,3.5,-,N/A,,Overcast,70,2012-09-17 12:54:00
6:54 AM,55.0,50.0,83,30.09,10.0,East,4.6,-,N/A,,Overcast,80,2012-09-17 13:54:00
7:54 AM,55.4,50.0,82,30.06,10.0,Calm,Calm,-,N/A,,Overcast,0,2012-09-17 14:54:00
8:54 AM,55.9,50.0,80,30.11,10.0,Calm,Calm,-,N/A,,Overcast,0,2012-09-17 15:54:00
9:54 AM,57.0,50.0,77,30.12,10.0,Variable,3.5,-,N/A,,Overcast,0,2012-09-17 16:54:00
10:54 AM,59.0,50.0,72,30.12,10.0,NNW,5.8,-,N/A,,Overcast,330,2012-09-17 17:54:00
11:42 AM,60.8,50.0,68,30.08,10.0,NW,9.2,-,N/A,,Partly Cloudy,320,2012-09-17 18:42:00
11:54 AM,60.1,48.9,67,30.11,10.0,NW,9.2,-,N/A,,Partly Cloudy,310,2012-09-17 18:54:00
12:54 PM,61.0,48.9,64,30.10,10.0,WNW,9.2,-,N/A,,Clear,290,2012-09-17 19:54:00
1:54 PM,61.0,48.9,64,30.09,10.0,WNW,12.7,-,N/A,,Clear,290,2012-09-17 20:54:00
2:54 PM,62.1,48.9,62,30.07,10.0,WNW,10.4,-,N/A,,Clear,290,2012-09-17 21:54:00
3:54 PM,62.1,50.0,65,30.06,10.0,NW,11.5,20.7,N/A,,Partly Cloudy,320,2012-09-17 22:54:00
4:54 PM,62.1,48.9,62,30.07,10.0,SW,9.2,-,N/A,,Clear,220,2012-09-17 23:54:00
5:54 PM,60.1,50.0,69,30.07,10.0,North,-9999.0,-,N/A,,Clear,0,2012-09-18 00:54:00
6:38 PM,57.2,48.2,72,30.04,10.0,WSW,6.9,-,N/A,,Mostly Cloudy,250,2012-09-18 01:38:00
6:54 PM,57.2,48.2,72,30.04,10.0,WSW,8.1,-,N/A,,Overcast,250,2012-09-18 01:54:00
7:18 PM,57.2,48.2,72,30.04,10.0,WSW,4.6,-,N/A,,Overcast,240,2012-09-18 02:18:00
7:54 PM,55.9,48.9,77,30.09,10.0,SW,4.6,-,N/A,,Overcast,220,2012-09-18 02:54:00
8:54 PM,55.9,48.9,77,30.10,10.0,WNW,3.5,-,N/A,,Overcast,290,2012-09-18 03:54:00
9:54 PM,55.0,48.9,80,30.10,10.0,Calm,Calm,-,N/A,,Overcast,0,2012-09-18 04:54:00
10:54 PM,55.9,50.0,80,30.11,10.0,Calm,Calm,-,N/A,,Overcast,0,2012-09-18 05:54:00
11:54 PM,55.0,48.9,80,30.10,10.0,West,3.5,-,N/A,,Overcast,270,2012-09-18 06:54:00